Location: Frydek-Mistek
(49.6830°N, 18.3330°E)
Time: 11:53:04
(UTC+02:00)

Courier 1B Rocket - Visible Passes

Search period start: 30 August 2015 00:00
Search period end: 09 September 2015 00:00
Orbit: 921 x 1202 km, 28.2° (Epoch: 29 August)

Date Brightness Start Highest point End Pass type
(mag) Time Alt. Az. Time Alt. Az. Time Alt. Az.
31 Aug 7.1 21:50:27 10° SSW 21:50:38 10° S 21:50:38 10° S visible
02 Sep 7.0 21:41:20 10° SSW 21:42:30 11° S 21:42:30 11° S visible
03 Sep 7.0 20:41:36 10° S 20:42:52 11° S 20:44:14 10° SSE visible
04 Sep 7.1 21:32:55 10° SSW 21:34:12 11° S 21:34:12 11° S visible
05 Sep 7.0 20:32:34 10° S 20:33:46 10° S 20:34:58 10° SSE visible
